Flag for Cameroon Weather past 2 weeks in Bamenda, Cameroon

Now
79 °F

Fog.


Feels Like: 82 °F
Forecast: 55 / 86 °F
Wind: No wind

Location: Douala Obs.

Current Time: Feb 28, 2015 at 7:20:00 AM

Latest Report: Feb 28, 2015 at 7:00 AM


Visibility: 2 mi

Pressure: 29.83 "Hg

Humidity: 89%

Dew point: 75 °F

Location of BamendaLocation

Historic Weather in Bamenda — Graph

°F

Bamenda temperature yesterday

Maximum temperature yesterday: 90 °F (at 2:00 PM)
Minimum temperature yesterday: 73 °F (at 3:00 AM)
Average temperature yesterday: 80 °F

Past Weeks' High & Low Weather Summary

 TemperatureHumidityPressure
High93 °F (Feb 16, 2:00 PM)100% (Feb 15, 7:00 AM)29.95 "Hg (Feb 15, 7:00 AM)
Low72 °F (Feb 19, 2:00 AM)59% (Feb 14, 1:00 PM)29.71 "Hg (Feb 17, 6:00 PM)
Average82 °F83%29.82 "Hg
* Reported Feb 13 6:00 AM — Feb 28 6:00 AM, Bamenda, Weather by CustomWeather, © 2015

Note: Actual official high and low records may vary slightly from our data, if they occured in-between our weather recording intervals... More about our weather records

Advertising

Bamenda weather history for previous 24 hours

 ConditionsComfort  
Time TempWeatherWind HumidityBarometerVisibility
6:00 AM
Sat, Feb 28
77 °FPassing clouds.No wind94%29.83 "Hg4 mi
5:00 AM77 °FPassing clouds.No wind100%29.83 "Hg4 mi
4:00 AM77 °FPassing clouds.No wind100%29.83 "Hg4 mi
3:00 AM79 °FPassing clouds.No wind94%29.83 "HgN/A
2:00 AM79 °FPartly cloudy.No wind94%29.83 "HgN/A
1:00 AM79 °FPassing clouds.No wind94%29.83 "HgN/A
12:00 AM79 °FPassing clouds.2 mph94%29.86 "HgN/A
11:00 PM
Fri, Feb 27
79 °FPassing clouds.No wind94%29.89 "HgN/A
10:00 PM79 °FPartly cloudy.No wind94%29.89 "HgN/A
9:00 PM82 °FPartly cloudy.5 mph79%29.89 "HgN/A
8:00 PM82 °FPassing clouds.5 mph79%29.86 "HgN/A
7:00 PM82 °FPartly cloudy.9 mph79%29.83 "HgN/A
6:00 PM86 °FBroken clouds.9 mph70%29.80 "HgN/A
5:00 PM88 °FBroken clouds.12 mph66%29.77 "HgN/A
4:00 PM90 °FBroken clouds.9 mph71%29.77 "HgN/A
3:00 PM90 °FPartly sunny.9 mph67%29.77 "HgN/A
2:00 PM90 °FPartly sunny.7 mph63%29.80 "HgN/A
1:00 PM86 °FBroken clouds.9 mph70%29.86 "HgN/A
12:00 PM84 °FBroken clouds.9 mph74%29.86 "Hg4 mi
11:00 AM82 °FBroken clouds.5 mph79%29.89 "Hg5 mi
10:00 AM79 °FBroken clouds.5 mph84%29.89 "Hg5 mi
9:00 AM77 °FBroken clouds.5 mph89%29.86 "Hg4 mi
8:00 AM77 °FThunderstorms. Fog.No wind83%29.83 "Hg2 mi
7:00 AM73 °FThunderstorms. Broken clouds.No wind94%29.83 "Hg5 mi
Weather by CustomWeather, © 2015

See weather overviewHow to use our weather pages